Simultaneous Nadir Overpasses (SNOs) Predictions

Prediction of SNOs between NPP and TERRA Satellite Orbit:

Table of predicted SNOs for the next 14.0 days since TLE Epoch: 11/4/2023
Index Date (NPP) Time (NPP) Lat,Lon (NPP) SZA (NPP ) Date (TERRA) Time (TERRA) Lat,Lon (TERRA) SZA (TERRA ) Distance(km) Time Diff (sec)
1 11/06/2023 08:59:24 -71.43,-140.44 92.72 11/06/2023 09:00:11 -71.44,-140.36 92.71 3.39 47
2 11/06/2023 09:50:08 71.31, 27.08 87.17 11/06/2023 09:49:34 71.28, 27.05 87.14 3.40 34
3 11/08/2023 21:02:37 71.47,-141.32 88.07 11/08/2023 21:03:44 71.46,-141.25 88.04 3.16 67
4 11/08/2023 21:53:18 -71.34, 26.24 92.07 11/08/2023 21:53:10 -71.34, 26.20 92.07 1.19 8
5 11/08/2023 22:43:50 70.59,-165.21 87.19 11/08/2023 22:42:42 70.68,-167.14 87.29 72.11 68
6 11/11/2023 09:06:01 -72.23,-143.52 90.46 11/11/2023 09:07:08 -72.12,-141.06 90.59 84.35 67
7 11/11/2023 09:56:31 71.40, 25.33 88.70 11/11/2023 09:56:42 71.37, 25.34 88.67 3.26 11
8 11/11/2023 10:47:13 -71.31,-167.20 91.38 11/11/2023 10:46:07 -71.30,-167.12 91.39 2.96 66
9 11/13/2023 21:59:39 -71.39, 24.55 90.63 11/13/2023 22:00:16 -71.40, 24.47 90.62 3.41 37
10 11/13/2023 22:50:24 71.33,-168.04 89.32 11/13/2023 22:49:37 71.35,-167.96 89.34 3.51 47
11 11/16/2023 10:02:52 71.47, 23.60 90.10 11/16/2023 10:03:46 71.47, 23.67 90.09 2.41 54
12 11/16/2023 10:53:33 -71.33,-168.83 90.04 11/16/2023 10:53:12 -71.34,-168.89 90.03 2.64 21



Historial Predications of SNOs between NPP and TERRA
